Regional Weather Roundup
Issued by NWS Burlington, VT

Home | Current Version | Previous Version | Text Only | Print | Product List | Glossary On
Versions: 1 2 3 4 5 6 7 8 9 10 11 12 13 14 15 16 17 18 19 20 21 22 23 24 25 26 27 28 29 30 31 32 33 34 35 36 37 38 39 40 41 42 43 44 45 46 47 48 49 50
000
ASUS41 KBTV 031510
RWRBTV
VERMONT REGIONAL WEATHER ROUNDUP
NATIONAL WEATHER SERVICE BURLINGTON VT
1100 AM EDT MON AUG 03 2015

NOTE: "FAIR" INDICATES FEW OR NO CLOUDS BELOW 12,000 FEET WITH NO
SIGNIFICANT WEATHER AND/OR OBSTRUCTIONS TO VISIBILITY.

* THESE REPORTS ARE NOT UNDER NWS QUALITY CONTROL AND/OR DO NOT
  REPORT WEATHER SUCH AS PRECIPITATION AND FOG.

VTZ001>019-031600-
_____VERMONT_____


CITY           SKY/WX    TMP DP  RH WIND       PRES   REMARKS
BURLINGTON     MOSUNNY   82  61  48 S16G24    29.70S
MONTPELIER     MOSUNNY   79  63  57 S10       29.78R
MORRISVILLE    MOSUNNY   82  63  52 SW6       29.74R
ST. JOHNSBURY*   N/A     78  61  55 MISG      29.72F
LYNDONVILLE*   FAIR      76  63  62 E8        29.78S
MIDDLEBURY*    FAIR      82  61  49 S15G21    29.74R
SPRINGFIELD    SUNNY     82  62  50 S9        29.77F
HIGHGATE*      PTSUNNY   78  64  63 W5        29.68R
NEWPORT*       FAIR      77  63  62 S12       29.74S
BENNINGTON     SUNNY     83  63  50 S10G17    29.77F
SUTTON*          N/A     75 N/A N/A MISG        N/A

_____LAKE CHAMPLAIN_____


CITY           SKY/WX    TMP DP  RH WIND       PRES   REMARKS

$$

NYZ007-026>031-035-052-083-031600-
_____NORTHERN NEW YORK_____


CITY           SKY/WX    TMP DP  RH WIND       PRES   REMARKS
PLATTSBURGH    LGT RAIN  79  62  56 W10G21    29.68S
SARANAC LAKE   PTSUNNY   71  56  58 SW12G24   29.75R
MASSENA        CLOUDY    71  63  75 SW10      29.70R
OGDENSBURG*    SUNNY     72  63  73 SW12      29.70R
POTSDAM*       PTSUNNY   70  64  83 SW8       29.72R
WATERTOWN      LGT RAIN  71  62  73 SW13G21   29.74R
FT DRUM        CLOUDY    72  59  63 W13G25    29.75R
ALBANY         MOSUNNY   83  63  50 S18       29.73F
GLENS FALLS    SUNNY     80  63  55 SW12      29.74R

$$
NHZ002-005-011-031600-
_____NEW HAMPSHIRE_____


CITY           SKY/WX    TMP DP  RH WIND       PRES   REMARKS
LEBANON        SUNNY     82  63  52 S14G20    29.75F
KEENE          SUNNY     82  61  47 SW15G22   29.80S
MT WASHINGTON  MOSUNNY   55  46  71 SW33G49     N/A
PLYMOUTH       FAIR      79  68  70 CALM      29.77F
WHITEFIELD     SUNNY     82  59  45 VRB7G18   29.76S

$$

_____REGIONAL QUEBEC LOCATIONS_____


CITY           SKY/WX    TMP DP  RH WIND       PRES   REMARKS
MONTREAL       PTSUNNY   72  64  78 SW13G22   29.67R
QUEBEC CITY    PTSUNNY   73  64  73 SW9G18    29.61S
SHERBROOKE     MOSUNNY   79  64  61 SW13G21   29.70R

_____REGIONAL ONTARIO LOCATIONS_____


CITY           SKY/WX    TMP DP  RH WIND       PRES   REMARKS
OTTAWA         PTSUNNY   68  64  88 S8        29.67R

______KEY______
VSB  - VISIBILITY IN MILES
WCI  - WIND CHILL INDEX
HX   - HEAT INDEX
$$
NNNN


USA.gov is the U.S. government's official web portal to all federal, state and local government web resources and services.